TimeEST,TemperatureF,Dew PointF,Humidity,Sea Level PressureIn,VisibilityMPH,Wind Direction,Wind SpeedMPH,Gust SpeedMPH,PrecipitationIn,Events,Conditions,WindDirDegrees,DateUTC
12:11 AM,42.8,41.0,93,29.53,3.0,NNE,6.9,-,0.00,Rain,Light Rain,30,2012-12-18 05:11:00
12:34 AM,42.8,41.0,93,29.52,2.0,North,4.6,-,0.00,Rain,Light Rain,10,2012-12-18 05:34:00
12:51 AM,42.8,41.0,93,29.51,1.8,North,4.6,-,0.00,Rain,Light Rain,10,2012-12-18 05:51:00
12:54 AM,42.1,41.0,96,29.53,1.8,North,4.6,-,0.00,Rain,Light Rain,360,2012-12-18 05:54:00
1:52 AM,42.8,41.0,93,29.51,1.0,Calm,Calm,-,0.01,Rain,Light Rain,0,2012-12-18 06:52:00
1:54 AM,42.1,41.0,96,29.52,1.0,Calm,Calm,-,0.01,Rain,Light Rain,0,2012-12-18 06:54:00
2:54 AM,42.1,41.0,96,29.51,1.2,North,3.5,-,0.01,Rain,Light Rain,350,2012-12-18 07:54:00
3:19 AM,42.8,41.0,93,29.49,1.5,NW,3.5,-,0.02,Rain,Light Rain,320,2012-12-18 08:19:00
3:47 AM,42.8,41.0,93,29.48,5.0,NW,4.6,-,0.04,Rain,Light Rain,320,2012-12-18 08:47:00
3:54 AM,42.1,42.1,100,29.50,5.0,NW,4.6,-,0.05,Rain,Light Rain,310,2012-12-18 08:54:00
4:54 AM,42.1,41.0,96,29.49,8.0,NW,6.9,-,0.01,Rain,Light Rain,320,2012-12-18 09:54:00
5:54 AM,42.1,39.9,92,29.49,6.0,NW,9.2,-,0.05,Rain,Rain,320,2012-12-18 10:54:00
6:54 AM,41.0,39.9,96,29.50,6.0,NW,10.4,-,0.06,Rain,Light Rain,320,2012-12-18 11:54:00
7:54 AM,41.0,39.9,96,29.51,6.0,WNW,11.5,-,0.03,Rain,Light Rain,300,2012-12-18 12:54:00
8:39 AM,41.0,39.2,93,29.50,2.5,WNW,12.7,-,0.01,Rain,Light Rain,300,2012-12-18 13:39:00
8:54 AM,41.0,39.0,93,29.52,2.0,WNW,12.7,-,0.02,Rain,Light Rain,300,2012-12-18 13:54:00
9:27 AM,41.0,39.2,93,29.52,1.5,WNW,12.7,-,0.01,Rain,Light Rain,300,2012-12-18 14:27:00
9:44 AM,41.0,39.2,93,29.52,3.0,NW,12.7,-,0.02,Rain,Light Rain,310,2012-12-18 14:44:00
9:54 AM,41.0,39.0,93,29.54,6.0,NW,15.0,20.7,0.02,Rain,Light Rain,310,2012-12-18 14:54:00
10:11 AM,41.0,39.2,93,29.54,2.5,NW,11.5,-,0.02,Rain,Light Rain,310,2012-12-18 15:11:00
10:37 AM,41.0,39.2,93,29.54,3.0,NW,13.8,20.7,0.03,Rain,Light Rain,310,2012-12-18 15:37:00
10:54 AM,41.0,39.0,93,29.56,5.0,NW,11.5,20.7,0.03,Rain,Light Rain,310,2012-12-18 15:54:00
11:54 AM,41.0,37.9,89,29.57,8.0,WNW,12.7,24.2,0.02,Rain,Light Rain,290,2012-12-18 16:54:00
12:54 PM,41.0,37.0,86,29.58,10.0,West,17.3,21.9,0.01,,Overcast,280,2012-12-18 17:54:00
1:13 PM,41.0,37.4,87,29.57,10.0,West,13.8,21.9,N/A,,Overcast,280,2012-12-18 18:13:00
1:54 PM,42.1,36.0,79,29.60,10.0,West,17.3,25.3,N/A,,Overcast,280,2012-12-18 18:54:00
2:54 PM,42.1,34.0,73,29.62,10.0,West,12.7,-,N/A,,Overcast,260,2012-12-18 19:54:00
3:54 PM,42.1,34.0,73,29.64,10.0,West,11.5,-,N/A,,Overcast,270,2012-12-18 20:54:00
4:54 PM,41.0,34.0,76,29.66,10.0,West,13.8,-,N/A,,Overcast,270,2012-12-18 21:54:00
5:54 PM,41.0,33.1,73,29.68,10.0,West,11.5,-,N/A,,Overcast,270,2012-12-18 22:54:00
6:54 PM,41.0,33.1,73,29.70,10.0,West,9.2,-,N/A,,Overcast,260,2012-12-18 23:54:00
7:54 PM,39.9,35.1,83,29.72,10.0,West,13.8,-,N/A,,Overcast,270,2012-12-19 00:54:00
8:54 PM,39.0,34.0,82,29.73,10.0,West,10.4,-,0.00,,Mostly Cloudy,270,2012-12-19 01:54:00
9:54 PM,37.0,33.1,86,29.74,10.0,West,13.8,-,N/A,,Mostly Cloudy,260,2012-12-19 02:54:00
10:54 PM,36.0,30.9,82,29.76,10.0,West,11.5,-,N/A,,Mostly Cloudy,260,2012-12-19 03:54:00
11:54 PM,36.0,30.0,79,29.76,10.0,West,12.7,18.4,N/A,,Scattered Clouds,260,2012-12-19 04:54:00